Погода в Мирном

Россия / Архангельская область     62°45′52″N   40°20′09″E
В апреле 2022 года жителям России запретили посещать сайт meteo.paraplan.net по решению Генеральной прокуратуры. Аудитория сайта уменьшилась в 10 раз. Владельцы сайта не видят смысла в поддержке погодного сервера в таких условиях. Сайт будет закрыт в октябре.
темп.,
°C
ветер,
м/с
пор.,
м/с
влажн.,
%
обл.,
%
осадки,
мм/ч
давл.,
гПа
погр.,
м
3 октября, пн
пн300:00+3с279736 0.0 1010201
03:00+3с2790100 0.0 1012226
06:00+4ссв268996 0.0 1013256
09:00+4св368294 0.0 1014318
12:00+7всв3570100 0.0 1014658
15:00+8всв4770100 0.0 1014865
18:00+6всв41184100 0.0 1014565
21:00+6всв51391100 0.9 1013624
4 октября, вт
вт400:00+6всв51396100 1.4 1011584
03:00+7в41198100 2.9 1010491
06:00+8юв31098100 0.3 1011552
09:00+9ю39883 0.3 1012624
12:00+11ю37751 0.0 1013692
15:00+12ююв387423 0.0 10131071
18:00+8юв25935 0.1 101494
21:00+8юв3129643 1.0 1014375
5 октября, ср
ср500:00+8юв3109599 0.1 1014353
03:00+7юв2896100 0.1 1014205
06:00+8вюв31094100 0.0 1013322
09:00+9юв3109398 0.0 1012473
12:00+9вюв3993100 0.1 1012604
15:00+10юв379098 0.3 1011551
18:00+9юв2793100 0.3 1012269
21:00+8юв2794100 0.7 1011297
6 октября, чт
чт600:00+7ю139714 0.1 101180
03:00+5ю119895 0.1 101110
06:00+6ю1196100 0.0 101118
09:00+7ююз12929 0.0 1010153
12:00+10ююз35775 0.0 1008575
15:00+10ююз477614 0.0 10061003
18:00+8ю5128377 0.0 1004719
21:00+7ю61491100 1.9 1000886
7 октября, пт
пт700:00+7ююз51395100 4.7 998839
03:00+9зюз4108594 4.8 998708
06:00+8юз4992100 0.5 998910
09:00+8зюз41087100 0.8 998904
12:00+9зюз51083100 0.2 9991034
15:00+10з51083100 1.0 9991307
18:00+8зюз41185100 0.3 1002712
21:00+7з4118977 0.3 1005753